Baltimore,Washington International Thurgood Marshal Airport Baltimore US
ICAO: KBWI
IATA: BWI
Category: Large
Scheduled Services: Yes

Elevation: 146 ft
TransAlt. 18000 ft.

Airport Communications:
POTOMAC APP:119
ATIS:115.1
CLNC DEL:118.05
POTOMAC DEP:126.75
GND:121.9
LEESBURG RDO:122.2
TWR:119.4
UNICOM:122.95

KBWI Zoom In..

Runways:

(A) RW 04 length 6000 ft width 150 ft
---- / hdg 44

(B) RW 10 length 10502 ft width 150 ft
ILS 109.70 / hdg 105

(C) RW 15L length 5000 ft width 100 ft
ILS 111.95 / hdg 155

(D) RW 15R length 9501 ft width 150 ft
ILS 111.70 / hdg 155

(E) RW 22 length 6000 ft width 150 ft
---- / hdg 224

(F) RW 28 length 10502 ft width 150 ft
ILS 109.70 / hdg 285

(G) RW 33L length 9501 ft width 150 ft
ILS 111.70 / hdg 335

(H) RW 33R length 5000 ft width 100 ft
ILS 111.95 / hdg 335

Location; KBWI
Day. 23 / Time. 03.18 Zulu
* Altimeter: 29.89
* Temperature: 22° c. 71.6°f.
* Wind from: 040° Speed 05 kn.
Dewpoint: 22° c.
Visibility: 10 Statute Miles.
Clouds: Broken 1300 ft.
Clouds: Overcast 2500 ft.

KBWI 230318Z 04005KT 10SM BKN013 OVC025 22/22 A2989 RMK AO2 T02220217 $


Wind From 040°
Speed 05 kn.

 
 
jpsmedia.com for Web Design worldairports.se 2018   terms of use